Time,TemperatureF,DewpointF,PressureIn,WindDirection,WindDirectionDegrees,WindSpeedMPH,WindSpeedGustMPH,Humidity,HourlyPrecipIn,Conditions,Clouds,dailyrainin,SoftwareType,DateUTC
2013-01-02 00:00:00,52.1,49.8,29.94,SE,135,0.0,0.0,92,0.00,,---,0.02,VWS V14.01,2013-01-02 05:00:00,
2013-01-02 00:02:00,52.1,50.1,29.93,SE,135,1.2,1.4,93,0.00,,---,0.00,VWS V14.01,2013-01-02 05:02:00,
2013-01-02 00:03:00,52.1,49.8,29.93,SE,135,0.7,1.4,92,0.00,,---,0.00,VWS V14.01,2013-01-02 05:03:00,
2013-01-02 00:08:00,52.2,50.2,29.93,SE,135,0.0,0.0,93,0.00,,---,0.00,VWS V14.01,2013-01-02 05:08:00,
2013-01-02 00:13:00,52.1,50.1,29.93,SE,135,0.0,0.0,93,0.00,,---,0.00,VWS V14.01,2013-01-02 05:13:00,
2013-01-02 00:18:00,52.1,50.1,29.93,SE,135,0.0,0.0,93,0.00,,---,0.00,VWS V14.01,2013-01-02 05:18:00,
2013-01-02 00:23:00,52.1,50.1,29.93,SE,135,0.0,0.0,93,0.00,,---,0.00,VWS V14.01,2013-01-02 05:23:00,
2013-01-02 00:28:00,52.1,50.1,29.91,SE,135,1.8,2.3,93,0.00,,---,0.00,VWS V14.01,2013-01-02 05:28:00,
2013-01-02 00:33:00,52.2,50.2,29.91,SSE,158,0.0,0.8,93,0.00,,---,0.00,VWS V14.01,2013-01-02 05:33:00,
2013-01-02 00:38:00,52.2,50.2,29.91,ESE,112,1.5,1.8,93,0.00,,---,0.00,VWS V14.01,2013-01-02 05:38:00,
2013-01-02 00:43:00,52.2,50.5,29.91,ESE,112,0.0,0.0,94,0.00,,---,0.00,VWS V14.01,2013-01-02 05:43:00,
2013-01-02 00:48:00,52.4,50.7,29.91,ESE,112,0.0,0.0,94,0.00,,---,0.00,VWS V14.01,2013-01-02 05:48:00,
2013-01-02 00:53:00,52.4,50.7,29.90,ESE,112,0.0,0.0,94,0.00,,---,0.00,VWS V14.01,2013-01-02 05:53:00,
2013-01-02 00:58:00,52.4,50.7,29.89,ESE,112,3.0,3.7,94,0.00,,---,0.00,VWS V14.01,2013-01-02 05:58:00,
2013-01-02 01:03:00,52.4,50.7,29.90,SSE,158,0.0,0.0,94,0.00,,---,0.00,VWS V14.01,2013-01-02 06:03:00,
2013-01-02 01:08:00,52.4,50.7,29.89,SE,135,0.0,0.0,94,0.00,,---,0.00,VWS V14.01,2013-01-02 06:08:00,
2013-01-02 01:13:00,52.2,50.5,29.89,SE,135,0.7,0.8,94,0.00,,---,0.00,VWS V14.01,2013-01-02 06:13:00,
2013-01-02 01:18:00,52.4,50.7,29.89,SE,135,0.0,0.0,94,0.00,,---,0.00,VWS V14.01,2013-01-02 06:18:00,
2013-01-02 01:23:00,52.4,50.7,29.90,ESE,112,0.0,0.0,94,0.00,,---,0.00,VWS V14.01,2013-01-02 06:23:00,
2013-01-02 01:28:00,52.4,50.7,29.90,ESE,112,0.0,0.0,94,0.00,,---,0.00,VWS V14.01,2013-01-02 06:28:00,
2013-01-02 01:33:00,52.2,50.5,29.89,ESE,112,0.0,0.0,94,0.00,,---,0.00,VWS V14.01,2013-01-02 06:33:00,
2013-01-02 01:38:00,52.2,50.5,29.90,ESE,112,0.0,0.0,94,0.00,,---,0.00,VWS V14.01,2013-01-02 06:38:00,
2013-01-02 01:43:00,52.2,50.5,29.89,ESE,112,0.0,0.0,94,0.00,,---,0.00,VWS V14.01,2013-01-02 06:43:00,
2013-01-02 01:48:00,52.4,50.7,29.90,ESE,112,0.0,0.0,94,0.00,,---,0.00,VWS V14.01,2013-01-02 06:48:00,
2013-01-02 01:53:00,52.2,50.5,29.90,ESE,112,0.0,0.0,94,0.00,,---,0.00,VWS V14.01,2013-01-02 06:53:00,
2013-01-02 01:58:00,52.2,50.5,29.90,ESE,112,0.0,0.0,94,0.00,,---,0.00,VWS V14.01,2013-01-02 06:58:00,
2013-01-02 02:03:00,52.2,50.2,29.90,ESE,112,0.0,0.0,93,0.00,,---,0.00,VWS V14.01,2013-01-02 07:03:00,
2013-01-02 02:08:00,52.2,50.2,29.90,ESE,112,0.0,0.0,93,0.00,,---,0.00,VWS V14.01,2013-01-02 07:08:00,
2013-01-02 02:13:00,52.2,50.2,29.90,ESE,112,0.0,0.0,93,0.00,,---,0.00,VWS V14.01,2013-01-02 07:13:00,
2013-01-02 02:18:00,52.2,50.2,29.90,ESE,112,0.0,0.0,93,0.00,,---,0.00,VWS V14.01,2013-01-02 07:18:00,
2013-01-02 02:23:00,52.2,50.5,29.90,ESE,112,0.0,0.0,94,0.00,,---,0.00,VWS V14.01,2013-01-02 07:23:00,
2013-01-02 02:28:00,52.2,50.2,29.90,ESE,112,0.0,0.0,93,0.00,,---,0.00,VWS V14.01,2013-01-02 07:28:00,
2013-01-02 02:33:00,52.2,50.5,29.90,ESE,112,0.0,0.0,94,0.00,,---,0.00,VWS V14.01,2013-01-02 07:33:00,
2013-01-02 02:38:00,52.2,50.5,29.90,SW,225,0.7,0.8,94,0.00,,---,0.00,VWS V14.01,2013-01-02 07:38:00,
2013-01-02 02:43:00,52.2,50.5,29.90,SW,225,0.0,0.0,94,0.00,,---,0.00,VWS V14.01,2013-01-02 07:43:00,
2013-01-02 02:48:00,52.2,50.5,29.90,ESE,112,0.7,0.8,94,0.00,,---,0.00,VWS V14.01,2013-01-02 07:48:00,
2013-01-02 02:53:00,52.2,50.5,29.89,SW,225,0.0,0.0,94,0.00,,---,0.00,VWS V14.01,2013-01-02 07:53:00,
2013-01-02 02:58:00,52.2,50.5,29.89,East,90,0.7,0.8,94,0.00,,---,0.00,VWS V14.01,2013-01-02 07:58:00,
2013-01-02 03:03:00,52.2,50.5,29.90,East,90,0.0,0.0,94,0.00,,---,0.00,VWS V14.01,2013-01-02 08:03:00,
2013-01-02 03:08:00,52.2,50.5,29.90,East,90,0.0,0.0,94,0.00,,---,0.00,VWS V14.01,2013-01-02 08:08:00,
2013-01-02 03:13:00,52.2,50.5,29.90,East,90,0.0,0.0,94,0.00,,---,0.00,VWS V14.01,2013-01-02 08:13:00,
2013-01-02 03:18:00,52.2,50.5,29.90,East,90,0.0,0.0,94,0.00,,---,0.00,VWS V14.01,2013-01-02 08:18:00,
2013-01-02 03:23:00,52.2,50.5,29.90,East,90,0.0,0.0,94,0.00,,---,0.00,VWS V14.01,2013-01-02 08:23:00,
2013-01-02 03:28:00,52.2,50.5,29.90,East,90,0.0,0.0,94,0.00,,---,0.00,VWS V14.01,2013-01-02 08:28:00,
2013-01-02 03:33:00,52.2,50.5,29.90,NNE,22,0.0,0.0,94,0.01,,---,0.01,VWS V14.01,2013-01-02 08:33:00,
2013-01-02 03:38:00,52.2,50.8,29.90,NE,45,0.0,0.0,95,0.02,,---,0.02,VWS V14.01,2013-01-02 08:38:00,
2013-01-02 03:43:00,52.4,51.0,29.90,SSE,158,0.3,0.8,95,0.02,,---,0.02,VWS V14.01,2013-01-02 08:43:00,
2013-01-02 03:48:00,52.4,51.0,29.90,East,90,3.3,4.1,95,0.03,,---,0.03,VWS V14.01,2013-01-02 08:48:00,
2013-01-02 03:54:00,52.4,51.0,29.89,NNE,22,0.7,2.3,95,0.03,,---,0.03,VWS V14.01,2013-01-02 08:54:00,
2013-01-02 03:59:00,52.4,51.0,29.89,NE,45,1.8,2.3,95,0.03,,---,0.03,VWS V14.01,2013-01-02 08:59:00,
2013-01-02 04:04:00,52.4,51.0,29.88,East,90,0.7,0.8,95,0.03,,---,0.03,VWS V14.01,2013-01-02 09:04:00,
2013-01-02 04:09:00,52.4,51.0,29.88,ESE,112,2.1,3.3,95,0.04,,---,0.04,VWS V14.01,2013-01-02 09:09:00,
2013-01-02 04:14:00,52.4,51.0,29.88,East,90,1.2,1.4,95,0.04,,---,0.04,VWS V14.01,2013-01-02 09:14:00,
2013-01-02 04:19:00,52.2,50.5,29.89,East,90,1.2,1.4,94,0.04,,---,0.04,VWS V14.01,2013-01-02 09:19:00,
2013-01-02 04:24:00,52.2,50.5,29.88,ENE,68,0.0,1.8,94,0.04,,---,0.04,VWS V14.01,2013-01-02 09:24:00,
2013-01-02 04:29:00,52.2,50.5,29.88,NE,45,0.0,0.0,94,0.05,,---,0.05,VWS V14.01,2013-01-02 09:29:00,
2013-01-02 04:34:00,52.2,50.5,29.89,NE,45,0.7,0.8,94,0.04,,---,0.05,VWS V14.01,2013-01-02 09:34:00,
2013-01-02 04:39:00,52.2,50.5,29.88,ENE,68,3.3,4.1,94,0.04,,---,0.06,VWS V14.01,2013-01-02 09:39:00,
2013-01-02 04:44:00,52.2,50.5,29.89,East,90,0.0,0.0,94,0.06,,---,0.08,VWS V14.01,2013-01-02 09:44:00,
2013-01-02 04:49:00,52.2,50.5,29.90,North,0,0.3,1.4,94,0.06,,---,0.09,VWS V14.01,2013-01-02 09:49:00,
2013-01-02 04:54:00,52.1,50.4,29.90,North,0,0.0,0.4,94,0.07,,---,0.10,VWS V14.01,2013-01-02 09:54:00,
2013-01-02 04:59:00,52.1,50.4,29.90,North,0,0.0,0.0,94,0.09,,---,0.12,VWS V14.01,2013-01-02 09:59:00,
2013-01-02 05:04:00,52.1,50.4,29.90,NE,45,0.0,0.0,94,0.09,,---,0.13,VWS V14.01,2013-01-02 10:04:00,
2013-01-02 05:09:00,52.1,50.4,29.90,NE,45,0.0,0.4,94,0.10,,---,0.14,VWS V14.01,2013-01-02 10:09:00,
2013-01-02 05:14:00,52.1,50.4,29.90,ENE,68,0.0,0.0,94,0.10,,---,0.14,VWS V14.01,2013-01-02 10:14:00,
2013-01-02 05:19:00,52.1,50.4,29.91,NNE,22,0.0,0.0,94,0.10,,---,0.14,VWS V14.01,2013-01-02 10:19:00,
2013-01-02 05:24:00,51.9,50.2,29.90,NNE,22,0.7,2.3,94,0.10,,---,0.14,VWS V14.01,2013-01-02 10:24:00,
2013-01-02 05:29:00,51.9,50.2,29.90,East,90,0.0,0.0,94,0.09,,---,0.14,VWS V14.01,2013-01-02 10:29:00,
2013-01-02 05:34:00,51.9,50.2,29.90,North,0,0.0,0.0,94,0.09,,---,0.14,VWS V14.01,2013-01-02 10:34:00,
2013-01-02 05:39:00,51.9,50.2,29.91,North,0,0.0,0.0,94,0.08,,---,0.14,VWS V14.01,2013-01-02 10:39:00,
2013-01-02 05:44:00,51.7,50.0,29.90,North,0,0.0,0.0,94,0.07,,---,0.15,VWS V14.01,2013-01-02 10:44:00,
2013-01-02 05:49:00,51.7,50.0,29.89,SE,135,2.6,5.5,94,0.07,,---,0.15,VWS V14.01,2013-01-02 10:49:00,
2013-01-02 05:54:00,51.7,50.0,29.88,ENE,68,1.8,2.3,94,0.06,,---,0.16,VWS V14.01,2013-01-02 10:54:00,
2013-01-02 05:59:00,51.7,50.0,29.88,East,90,3.3,4.1,94,0.04,,---,0.16,VWS V14.01,2013-01-02 10:59:00,
2013-01-02 06:04:00,51.7,50.0,29.86,SE,135,5.6,7.0,94,0.03,,---,0.16,VWS V14.01,2013-01-02 11:04:00,
2013-01-02 06:09:00,51.7,50.0,29.86,SSW,202,0.3,0.4,94,0.02,,---,0.16,VWS V14.01,2013-01-02 11:09:00,
2013-01-02 06:14:00,51.7,50.0,29.88,East,90,0.0,2.3,94,0.02,,---,0.16,VWS V14.01,2013-01-02 11:14:00,
2013-01-02 06:19:00,51.7,50.0,29.89,NE,45,0.3,0.4,94,0.02,,---,0.16,VWS V14.01,2013-01-02 11:19:00,
2013-01-02 06:24:00,51.7,50.0,29.90,NE,45,0.0,0.0,94,0.02,,---,0.16,VWS V14.01,2013-01-02 11:24:00,
2013-01-02 06:29:00,51.7,50.0,29.90,ENE,68,0.7,0.8,94,0.02,,---,0.16,VWS V14.01,2013-01-02 11:29:00,
2013-01-02 06:34:00,51.7,50.0,29.89,ENE,68,0.7,0.8,94,0.02,,---,0.16,VWS V14.01,2013-01-02 11:34:00,
2013-01-02 06:39:00,51.7,50.0,29.91,North,0,1.5,1.8,94,0.02,,---,0.16,VWS V14.01,2013-01-02 11:39:00,
2013-01-02 06:44:00,51.7,50.0,29.92,North,0,1.5,1.8,94,0.01,,---,0.16,VWS V14.01,2013-01-02 11:44:00,
2013-01-02 06:49:00,51.7,50.0,29.91,North,0,0.0,0.0,94,0.02,,---,0.17,VWS V14.01,2013-01-02 11:49:00,
2013-01-02 06:54:00,51.7,50.0,29.91,East,90,5.1,6.4,94,0.01,,---,0.17,VWS V14.01,2013-01-02 11:54:00,
2013-01-02 06:59:00,51.7,50.0,29.91,ENE,68,0.3,4.1,94,0.01,,---,0.17,VWS V14.01,2013-01-02 11:59:00,
2013-01-02 07:04:00,51.7,50.0,29.92,NE,45,3.0,3.7,94,0.01,,---,0.17,VWS V14.01,2013-01-02 12:04:00,
2013-01-02 07:09:00,51.7,50.0,29.92,NE,45,0.0,0.0,94,0.01,,---,0.17,VWS V14.01,2013-01-02 12:09:00,
2013-01-02 07:14:00,51.7,50.0,29.92,NNE,22,1.2,1.4,94,0.01,,---,0.17,VWS V14.01,2013-01-02 12:14:00,
2013-01-02 07:19:00,51.5,49.8,29.93,North,0,0.3,0.4,94,0.01,,---,0.17,VWS V14.01,2013-01-02 12:19:00,
2013-01-02 07:24:00,51.5,49.8,29.93,North,0,0.0,0.0,94,0.01,,---,0.17,VWS V14.01,2013-01-02 12:24:00,
2013-01-02 07:29:00,51.5,49.8,29.93,North,0,1.8,5.9,94,0.01,,---,0.17,VWS V14.01,2013-01-02 12:29:00,
2013-01-02 07:34:00,51.5,49.8,29.93,NNE,22,3.3,4.1,94,0.01,,---,0.17,VWS V14.01,2013-01-02 12:34:00,
2013-01-02 07:39:00,51.3,49.6,29.92,East,90,3.0,3.7,94,0.02,,---,0.19,VWS V14.01,2013-01-02 12:39:00,
2013-01-02 07:44:00,51.3,49.6,29.93,NE,45,1.5,1.8,94,0.02,,---,0.19,VWS V14.01,2013-01-02 12:44:00,
2013-01-02 07:49:00,51.3,49.6,29.94,WSW,248,1.2,1.4,94,0.02,,---,0.19,VWS V14.01,2013-01-02 12:49:00,
2013-01-02 07:54:00,51.3,49.6,29.94,NNE,22,1.5,1.8,94,0.02,,---,0.19,VWS V14.01,2013-01-02 12:54:00,
2013-01-02 07:59:00,51.2,49.5,29.94,North,0,0.7,0.8,94,0.02,,---,0.19,VWS V14.01,2013-01-02 12:59:00,
2013-01-02 08:04:00,51.2,49.5,29.95,NNE,22,0.7,0.8,94,0.02,,---,0.19,VWS V14.01,2013-01-02 13:04:00,
2013-01-02 08:09:00,51.2,49.5,29.95,NE,45,1.8,2.3,94,0.02,,---,0.19,VWS V14.01,2013-01-02 13:09:00,
2013-01-02 08:14:00,51.0,49.3,29.95,NNW,338,0.7,0.8,94,0.03,,---,0.20,VWS V14.01,2013-01-02 13:14:00,
2013-01-02 08:19:00,51.0,49.3,29.95,NNE,22,4.1,8.8,94,0.03,,---,0.20,VWS V14.01,2013-01-02 13:19:00,
2013-01-02 08:24:00,51.0,49.3,29.95,NNE,22,0.0,0.0,94,0.03,,---,0.20,VWS V14.01,2013-01-02 13:24:00,
2013-01-02 08:29:00,50.8,49.1,29.95,NNE,22,1.5,1.8,94,0.04,,---,0.21,VWS V14.01,2013-01-02 13:29:00,
2013-01-02 08:34:00,50.6,48.9,29.97,NNE,22,1.5,1.8,94,0.04,,---,0.21,VWS V14.01,2013-01-02 13:34:00,
2013-01-02 08:39:00,50.3,48.6,29.97,NNE,22,0.7,0.8,94,0.03,,---,0.21,VWS V14.01,2013-01-02 13:39:00,
2013-01-02 08:44:00,50.3,48.6,29.98,NNE,22,5.1,6.4,94,0.03,,---,0.21,VWS V14.01,2013-01-02 13:44:00,
2013-01-02 08:49:00,50.1,48.4,29.98,North,0,1.8,2.3,94,0.02,,---,0.21,VWS V14.01,2013-01-02 13:49:00,
2013-01-02 08:54:00,49.9,48.2,29.98,NE,45,3.0,3.7,94,0.02,,---,0.21,VWS V14.01,2013-01-02 13:54:00,
2013-01-02 08:59:00,49.7,48.0,29.98,NNW,338,1.8,2.3,94,0.02,,---,0.21,VWS V14.01,2013-01-02 13:59:00,
2013-01-02 09:04:00,49.5,47.8,29.99,NNE,22,2.1,2.7,94,0.03,,---,0.22,VWS V14.01,2013-01-02 14:04:00,
2013-01-02 09:09:00,49.5,47.8,30.00,NNE,22,1.5,2.3,94,0.03,,---,0.22,VWS V14.01,2013-01-02 14:09:00,
2013-01-02 09:14:00,49.5,47.8,30.00,NE,45,1.2,1.4,94,0.03,,---,0.22,VWS V14.01,2013-01-02 14:14:00,
2013-01-02 09:19:00,49.5,47.8,29.99,NNE,22,2.1,2.7,94,0.02,,---,0.22,VWS V14.01,2013-01-02 14:19:00,
2013-01-02 09:24:00,49.4,47.8,29.97,NE,45,4.1,5.1,94,0.02,,---,0.22,VWS V14.01,2013-01-02 14:24:00,
2013-01-02 09:29:00,49.2,47.5,29.98,ENE,68,2.1,2.7,94,0.01,,---,0.22,VWS V14.01,2013-01-02 14:29:00,
2013-01-02 09:34:00,49.4,47.8,29.99,NNE,22,1.5,1.8,94,0.01,,---,0.22,VWS V14.01,2013-01-02 14:34:00,
2013-01-02 09:39:00,49.5,47.8,30.00,NNW,338,2.1,2.7,94,0.01,,---,0.22,VWS V14.01,2013-01-02 14:39:00,
2013-01-02 09:44:00,49.5,47.8,30.00,NE,45,2.6,3.3,94,0.01,,---,0.22,VWS V14.01,2013-01-02 14:44:00,
2013-01-02 09:49:00,49.4,47.8,30.00,North,0,3.3,4.1,94,0.01,,---,0.22,VWS V14.01,2013-01-02 14:49:00,
2013-01-02 09:54:00,49.2,47.5,30.01,NNW,338,1.5,2.3,94,0.01,,---,0.22,VWS V14.01,2013-01-02 14:54:00,
2013-01-02 10:00:00,49.2,47.5,30.01,NE,45,1.8,2.3,94,0.01,,---,0.22,VWS V14.01,2013-01-02 15:00:00,
2013-01-02 10:04:00,48.8,47.2,30.01,North,0,1.5,9.6,94,0.00,,---,0.22,VWS V14.01,2013-01-02 15:04:00,
2013-01-02 10:09:00,49.0,47.4,30.01,ENE,68,5.9,7.4,94,0.00,,---,0.22,VWS V14.01,2013-01-02 15:09:00,
2013-01-02 10:14:00,49.0,47.4,30.01,North,0,1.8,2.3,94,0.00,,---,0.22,VWS V14.01,2013-01-02 15:14:00,
2013-01-02 10:19:00,48.8,47.2,30.02,ENE,68,3.0,3.7,94,0.00,,---,0.22,VWS V14.01,2013-01-02 15:19:00,
2013-01-02 10:24:00,48.8,47.2,30.02,NE,45,0.7,0.8,94,0.00,,---,0.22,VWS V14.01,2013-01-02 15:24:00,
2013-01-02 10:29:00,48.8,47.2,30.02,NNE,22,0.7,0.8,94,0.00,,---,0.22,VWS V14.01,2013-01-02 15:29:00,
2013-01-02 10:34:00,48.8,47.2,30.02,NNE,22,3.6,4.5,94,0.00,,---,0.22,VWS V14.01,2013-01-02 15:34:00,
2013-01-02 10:39:00,48.8,47.2,30.02,NNE,22,1.5,2.3,94,0.00,,---,0.22,VWS V14.01,2013-01-02 15:39:00,
2013-01-02 10:45:00,49.0,47.4,30.02,North,0,0.7,0.8,94,0.00,,---,0.22,VWS V14.01,2013-01-02 15:45:00,
2013-01-02 10:50:00,49.2,47.5,30.03,SE,135,3.0,3.7,94,0.00,,---,0.22,VWS V14.01,2013-01-02 15:50:00,
2013-01-02 10:55:00,49.0,47.4,30.03,East,90,2.6,9.6,94,0.00,,---,0.22,VWS V14.01,2013-01-02 15:55:00,
2013-01-02 11:00:00,49.2,47.5,30.03,East,90,1.2,2.3,94,0.00,,---,0.22,VWS V14.01,2013-01-02 16:00:00,
2013-01-02 11:05:00,49.2,47.5,30.02,ENE,68,3.3,4.1,94,0.01,,---,0.23,VWS V14.01,2013-01-02 16:05:00,
2013-01-02 11:10:00,49.2,47.5,30.03,ENE,68,3.3,4.1,94,0.01,,---,0.23,VWS V14.01,2013-01-02 16:10:00,
2013-01-02 11:15:00,49.4,47.8,30.02,ENE,68,3.0,5.1,94,0.01,,---,0.23,VWS V14.01,2013-01-02 16:15:00,
2013-01-02 11:20:00,49.5,47.8,30.02,NNE,22,4.1,5.1,94,0.01,,---,0.23,VWS V14.01,2013-01-02 16:20:00,
2013-01-02 11:25:00,49.5,47.6,30.03,North,0,2.6,3.3,93,0.01,,---,0.23,VWS V14.01,2013-01-02 16:25:00,
2013-01-02 11:30:00,49.7,47.8,30.02,NE,45,0.7,0.8,93,0.01,,---,0.23,VWS V14.01,2013-01-02 16:30:00,
2013-01-02 11:35:00,49.5,47.6,30.02,ENE,68,3.0,5.1,93,0.01,,---,0.23,VWS V14.01,2013-01-02 16:35:00,
2013-01-02 11:40:00,49.4,47.5,30.01,ENE,68,0.7,2.7,93,0.01,,---,0.23,VWS V14.01,2013-01-02 16:40:00,
2013-01-02 11:45:00,49.4,47.5,30.01,South,180,1.2,3.7,93,0.01,,---,0.23,VWS V14.01,2013-01-02 16:45:00,
2013-01-02 11:50:00,49.5,47.6,30.01,NE,45,2.6,3.3,93,0.01,,---,0.23,VWS V14.01,2013-01-02 16:50:00,
2013-01-02 11:55:00,49.5,47.6,30.00,NE,45,4.8,8.2,93,0.01,,---,0.23,VWS V14.01,2013-01-02 16:55:00,
2013-01-02 12:00:00,49.5,47.3,30.00,SE,135,4.8,5.9,92,0.01,,---,0.23,VWS V14.01,2013-01-02 17:00:00,
2013-01-02 12:05:00,49.7,47.5,29.99,South,180,3.0,6.4,92,0.01,,---,0.23,VWS V14.01,2013-01-02 17:05:00,
2013-01-02 12:10:00,49.9,47.7,29.99,ENE,68,3.3,4.1,92,0.00,,---,0.23,VWS V14.01,2013-01-02 17:10:00,
2013-01-02 12:15:00,50.3,48.1,29.99,NE,45,1.5,1.8,92,0.00,,---,0.23,VWS V14.01,2013-01-02 17:15:00,
2013-01-02 12:20:00,51.2,48.9,29.98,ESE,112,6.3,7.8,92,0.00,,---,0.23,VWS V14.01,2013-01-02 17:20:00,
2013-01-02 12:25:00,51.9,49.6,29.99,ESE,112,1.8,5.9,92,0.00,,---,0.23,VWS V14.01,2013-01-02 17:25:00,
2013-01-02 12:30:00,51.9,49.6,29.99,NE,45,1.8,2.3,92,0.00,,---,0.23,VWS V14.01,2013-01-02 17:30:00,
2013-01-02 12:35:00,52.4,49.8,29.99,ESE,112,3.0,3.7,91,0.00,,---,0.23,VWS V14.01,2013-01-02 17:35:00,
2013-01-02 12:40:00,52.4,49.5,29.99,WNW,292,0.7,0.8,90,0.00,,---,0.23,VWS V14.01,2013-01-02 17:40:00,
2013-01-02 12:45:00,52.4,49.5,30.00,North,0,1.5,2.7,90,0.00,,---,0.23,VWS V14.01,2013-01-02 17:45:00,
2013-01-02 12:50:00,52.2,49.0,30.00,NE,45,1.8,2.3,89,0.00,,---,0.23,VWS V14.01,2013-01-02 17:50:00,
2013-01-02 12:55:00,52.1,48.9,29.99,North,0,1.2,2.7,89,0.00,,---,0.23,VWS V14.01,2013-01-02 17:55:00,
2013-01-02 13:00:00,51.9,48.7,29.99,NNE,22,3.3,4.1,89,0.00,,---,0.23,VWS V14.01,2013-01-02 18:00:00,
2013-01-02 13:05:00,51.9,48.7,29.99,NNE,22,2.1,5.9,89,0.00,,---,0.23,VWS V14.01,2013-01-02 18:05:00,
2013-01-02 13:10:00,52.2,49.0,29.99,NNW,338,1.8,2.3,89,0.00,,---,0.23,VWS V14.01,2013-01-02 18:10:00,
2013-01-02 13:15:00,52.4,49.2,30.00,NNE,22,2.6,3.3,89,0.00,,---,0.23,VWS V14.01,2013-01-02 18:15:00,
2013-01-02 13:20:00,52.4,48.9,29.99,NNE,22,0.7,5.1,88,0.00,,---,0.23,VWS V14.01,2013-01-02 18:20:00,
2013-01-02 13:25:00,52.1,48.6,30.00,NW,315,1.2,2.7,88,0.00,,---,0.23,VWS V14.01,2013-01-02 18:25:00,
2013-01-02 13:30:00,51.9,48.4,30.00,NE,45,2.1,2.7,88,0.00,,---,0.23,VWS V14.01,2013-01-02 18:30:00,
2013-01-02 13:35:00,51.7,48.2,29.99,North,0,0.3,0.4,88,0.00,,---,0.23,VWS V14.01,2013-01-02 18:35:00,
2013-01-02 13:40:00,51.7,48.2,30.00,NE,45,2.1,2.7,88,0.00,,---,0.23,VWS V14.01,2013-01-02 18:40:00,
2013-01-02 13:45:00,51.5,48.0,30.00,North,0,6.6,8.2,88,0.00,,---,0.23,VWS V14.01,2013-01-02 18:45:00,
2013-01-02 13:50:00,51.5,47.8,30.00,North,0,2.6,3.3,87,0.00,,---,0.23,VWS V14.01,2013-01-02 18:50:00,
2013-01-02 13:55:00,51.3,47.5,30.01,North,0,1.2,1.4,87,0.00,,---,0.23,VWS V14.01,2013-01-02 18:55:00,
2013-01-02 14:00:00,51.0,47.3,30.01,NNW,338,1.5,1.8,87,0.00,,---,0.23,VWS V14.01,2013-01-02 19:00:00,
2013-01-02 14:05:00,50.8,47.1,30.01,North,0,2.6,3.3,87,0.00,,---,0.23,VWS V14.01,2013-01-02 19:05:00,
2013-01-02 14:10:00,51.0,47.3,30.01,NNE,22,0.7,0.8,87,0.00,,---,0.23,VWS V14.01,2013-01-02 19:10:00,
2013-01-02 14:15:00,51.0,47.3,30.01,East,90,6.6,8.2,87,0.00,,---,0.23,VWS V14.01,2013-01-02 19:15:00,
2013-01-02 14:20:00,51.0,47.3,30.00,North,0,1.2,1.4,87,0.00,,---,0.23,VWS V14.01,2013-01-02 19:20:00,
2013-01-02 14:25:00,51.2,47.5,30.01,NNE,22,0.0,0.0,87,0.00,,---,0.23,VWS V14.01,2013-01-02 19:25:00,
2013-01-02 14:30:00,51.0,47.0,30.01,NE,45,3.3,4.1,86,0.00,,---,0.23,VWS V14.01,2013-01-02 19:30:00,
2013-01-02 14:35:00,50.8,46.8,30.01,NE,45,3.0,3.7,86,0.00,,---,0.23,VWS V14.01,2013-01-02 19:35:00,
2013-01-02 14:40:00,50.8,46.8,30.01,NNE,22,2.6,3.3,86,0.00,,---,0.23,VWS V14.01,2013-01-02 19:40:00,
2013-01-02 14:45:00,51.0,47.0,30.01,NNE,22,1.2,1.4,86,0.00,,---,0.23,VWS V14.01,2013-01-02 19:45:00,
2013-01-02 14:50:00,51.0,47.0,30.01,North,0,3.3,4.1,86,0.00,,---,0.23,VWS V14.01,2013-01-02 19:50:00,
2013-01-02 14:55:00,51.2,47.2,30.01,North,0,1.2,1.4,86,0.00,,---,0.23,VWS V14.01,2013-01-02 19:55:00,
2013-01-02 15:00:00,51.3,47.2,30.02,North,0,3.6,4.5,86,0.00,,---,0.23,VWS V14.01,2013-01-02 20:00:00,
2013-01-02 15:05:00,51.0,46.6,30.03,NNW,338,0.7,0.8,85,0.00,,---,0.23,VWS V14.01,2013-01-02 20:05:00,
2013-01-02 15:10:00,50.6,46.2,30.03,NNE,22,2.1,2.7,85,0.00,,---,0.23,VWS V14.01,2013-01-02 20:10:00,
2013-01-02 15:15:00,50.3,46.0,30.03,NNE,22,1.5,3.3,85,0.00,,---,0.23,VWS V14.01,2013-01-02 20:15:00,
2013-01-02 15:20:00,49.9,45.6,30.03,NNE,22,1.8,2.3,85,0.00,,---,0.23,VWS V14.01,2013-01-02 20:20:00,
2013-01-02 15:25:00,49.7,45.7,30.03,NE,45,3.0,3.7,86,0.00,,---,0.23,VWS V14.01,2013-01-02 20:25:00,
2013-01-02 15:30:00,49.7,45.7,30.03,North,0,1.5,1.8,86,0.00,,---,0.23,VWS V14.01,2013-01-02 20:30:00,
2013-01-02 15:35:00,49.5,45.5,30.03,North,0,1.8,5.5,86,0.00,,---,0.23,VWS V14.01,2013-01-02 20:35:00,
2013-01-02 15:40:00,49.4,45.4,30.04,North,0,1.2,1.4,86,0.00,,---,0.23,VWS V14.01,2013-01-02 20:40:00,
2013-01-02 15:45:00,49.2,45.2,30.05,North,0,0.7,0.8,86,0.00,,---,0.23,VWS V14.01,2013-01-02 20:45:00,
2013-01-02 15:50:00,48.8,44.8,30.05,North,0,3.0,3.7,86,0.00,,---,0.23,VWS V14.01,2013-01-02 20:50:00,
2013-01-02 15:55:00,48.6,44.6,30.05,NNE,22,5.1,6.4,86,0.00,,---,0.23,VWS V14.01,2013-01-02 20:55:00,
2013-01-02 16:00:00,48.5,44.8,30.05,ENE,68,2.1,10.0,87,0.00,,---,0.23,VWS V14.01,2013-01-02 21:00:00,
2013-01-02 16:05:00,48.1,44.4,30.06,ESE,112,1.5,1.8,87,0.00,,---,0.23,VWS V14.01,2013-01-02 21:05:00,
2013-01-02 16:10:00,47.9,44.2,30.06,North,0,1.8,4.1,87,0.00,,---,0.23,VWS V14.01,2013-01-02 21:10:00,
2013-01-02 16:15:00,47.6,44.2,30.06,NE,45,3.3,4.1,88,0.00,,---,0.23,VWS V14.01,2013-01-02 21:15:00,
2013-01-02 16:20:00,47.4,44.0,30.06,North,0,3.3,4.1,88,0.00,,---,0.23,VWS V14.01,2013-01-02 21:20:00,
2013-01-02 16:25:00,47.2,43.9,30.06,NE,45,1.8,2.3,88,0.00,,---,0.23,VWS V14.01,2013-01-02 21:25:00,
2013-01-02 16:30:00,47.0,43.7,30.07,North,0,1.8,2.3,88,0.00,,---,0.23,VWS V14.01,2013-01-02 21:30:00,
2013-01-02 16:36:00,46.7,43.4,30.07,NNE,22,5.6,7.0,88,0.00,,---,0.23,VWS V14.01,2013-01-02 21:36:00,
2013-01-02 16:41:00,46.7,43.7,30.07,NE,45,0.7,1.8,89,0.00,,---,0.23,VWS V14.01,2013-01-02 21:41:00,
2013-01-02 16:46:00,46.5,43.5,30.07,NE,45,5.6,7.0,89,0.00,,---,0.23,VWS V14.01,2013-01-02 21:46:00,
2013-01-02 16:51:00,46.3,43.3,30.07,ENE,68,4.8,5.9,89,0.00,,---,0.23,VWS V14.01,2013-01-02 21:51:00,
2013-01-02 16:56:00,46.1,43.1,30.08,NNE,22,0.7,2.3,89,0.00,,---,0.23,VWS V14.01,2013-01-02 21:56:00,
2013-01-02 17:01:00,45.9,42.9,30.08,NNE,22,1.8,2.3,89,0.00,,---,0.23,VWS V14.01,2013-01-02 22:01:00,
2013-01-02 17:06:00,45.9,43.2,30.08,North,0,0.7,2.3,90,0.00,,---,0.23,VWS V14.01,2013-01-02 22:06:00,
2013-01-02 17:11:00,45.9,43.2,30.08,NNE,22,1.5,2.3,90,0.00,,---,0.23,VWS V14.01,2013-01-02 22:11:00,
2013-01-02 17:16:00,45.8,43.1,30.08,NNE,22,1.8,4.1,90,0.00,,---,0.23,VWS V14.01,2013-01-02 22:16:00,
2013-01-02 17:21:00,45.6,42.9,30.08,NNE,22,1.5,2.3,90,0.00,,---,0.23,VWS V14.01,2013-01-02 22:21:00,
2013-01-02 17:26:00,45.6,42.9,30.08,NNE,22,2.1,2.7,90,0.00,,---,0.23,VWS V14.01,2013-01-02 22:26:00,
2013-01-02 17:31:00,45.4,42.7,30.08,NNE,22,1.2,1.4,90,0.00,,---,0.23,VWS V14.01,2013-01-02 22:31:00,
2013-01-02 17:36:00,45.4,42.7,30.09,NNE,22,0.7,0.8,90,0.00,,---,0.23,VWS V14.01,2013-01-02 22:36:00,
2013-01-02 17:41:00,45.2,42.8,30.09,NE,45,3.0,3.7,91,0.00,,---,0.23,VWS V14.01,2013-01-02 22:41:00,
2013-01-02 17:46:00,45.2,42.8,30.09,NNE,22,0.3,1.8,91,0.00,,---,0.23,VWS V14.01,2013-01-02 22:46:00,
2013-01-02 17:51:00,45.2,42.8,30.10,NE,45,0.3,0.8,91,0.00,,---,0.23,VWS V14.01,2013-01-02 22:51:00,
2013-01-02 17:56:00,45.0,42.3,30.09,NE,45,3.3,4.1,90,0.00,,---,0.23,VWS V14.01,2013-01-02 22:56:00,
2013-01-02 18:01:00,45.0,42.6,30.09,ESE,112,0.7,3.7,91,0.00,,---,0.23,VWS V14.01,2013-01-02 23:01:00,
2013-01-02 18:06:00,45.0,42.2,30.09,NE,45,3.6,4.5,90,0.00,,---,0.23,VWS V14.01,2013-01-02 23:06:00,
2013-01-02 18:11:00,45.0,42.5,30.10,NE,45,1.5,2.3,91,0.00,,---,0.23,VWS V14.01,2013-01-02 23:11:00,
2013-01-02 18:16:00,45.0,42.2,30.10,NE,45,3.0,3.7,90,0.00,,---,0.23,VWS V14.01,2013-01-02 23:16:00,
2013-01-02 18:21:00,44.8,42.0,30.09,North,0,1.2,2.3,90,0.00,,---,0.23,VWS V14.01,2013-01-02 23:21:00,
2013-01-02 18:26:00,44.8,42.0,30.10,North,0,0.7,1.8,90,0.00,,---,0.23,VWS V14.01,2013-01-02 23:26:00,
2013-01-02 18:31:00,44.8,42.0,30.11,NNE,22,1.5,1.8,90,0.00,,---,0.23,VWS V14.01,2013-01-02 23:31:00,
2013-01-02 18:36:00,44.5,41.8,30.11,NNE,22,1.8,2.3,90,0.00,,---,0.23,VWS V14.01,2013-01-02 23:36:00,
2013-01-02 18:41:00,44.5,41.8,30.11,NE,45,0.7,3.7,90,0.00,,---,0.23,VWS V14.01,2013-01-02 23:41:00,
2013-01-02 18:46:00,44.5,41.8,30.11,NE,45,0.0,1.8,90,0.00,,---,0.23,VWS V14.01,2013-01-02 23:46:00,
2013-01-02 18:51:00,44.5,41.8,30.11,NE,45,3.6,4.5,90,0.00,,---,0.23,VWS V14.01,2013-01-02 23:51:00,
2013-01-02 18:56:00,44.3,41.6,30.12,North,0,3.6,4.5,90,0.00,,---,0.23,VWS V14.01,2013-01-02 23:56:00,
2013-01-02 19:01:00,44.2,41.4,30.12,NNE,22,6.6,8.2,90,0.00,,---,0.23,VWS V14.01,2013-01-03 00:01:00,
2013-01-02 19:06:00,44.1,41.0,30.12,North,0,1.2,2.3,89,0.00,,---,0.23,VWS V14.01,2013-01-03 00:06:00,
2013-01-02 19:11:00,43.9,40.8,30.13,East,90,2.6,3.3,89,0.00,,---,0.23,VWS V14.01,2013-01-03 00:11:00,
2013-01-02 19:16:00,43.9,40.8,30.12,NNE,22,3.0,5.1,89,0.00,,---,0.23,VWS V14.01,2013-01-03 00:16:00,
2013-01-02 19:21:00,43.7,40.6,30.11,NNE,22,4.1,9.6,89,0.00,,---,0.23,VWS V14.01,2013-01-03 00:21:00,
2013-01-02 19:26:00,43.7,40.3,30.11,NE,45,1.8,3.3,88,0.00,,---,0.23,VWS V14.01,2013-01-03 00:26:00,
2013-01-02 19:31:00,43.7,40.6,30.13,North,0,0.0,0.8,89,0.00,,---,0.23,VWS V14.01,2013-01-03 00:31:00,
2013-01-02 19:36:00,43.5,40.4,30.13,NNE,22,0.7,2.7,89,0.00,,---,0.23,VWS V14.01,2013-01-03 00:36:00,
2013-01-02 19:41:00,43.5,40.4,30.13,ENE,68,1.5,1.8,89,0.00,,---,0.23,VWS V14.01,2013-01-03 00:41:00,
2013-01-02 19:46:00,43.5,40.4,30.14,NNE,22,0.0,0.0,89,0.00,,---,0.23,VWS V14.01,2013-01-03 00:46:00,
2013-01-02 19:51:00,43.5,40.4,30.13,NNE,22,0.0,0.0,89,0.00,,---,0.23,VWS V14.01,2013-01-03 00:51:00,
2013-01-02 19:56:00,43.5,40.4,30.13,NNE,22,0.0,0.0,89,0.00,,---,0.23,VWS V14.01,2013-01-03 00:56:00,
2013-01-02 20:01:00,43.3,40.2,30.13,NNE,22,0.7,0.8,89,0.00,,---,0.23,VWS V14.01,2013-01-03 01:01:00,
2013-01-02 20:06:00,43.3,40.2,30.13,NNE,22,0.0,0.0,89,0.00,,---,0.23,VWS V14.01,2013-01-03 01:06:00,
2013-01-02 20:11:00,43.3,40.2,30.14,NE,45,1.2,1.4,89,0.00,,---,0.23,VWS V14.01,2013-01-03 01:11:00,
2013-01-02 20:16:00,43.3,40.2,30.13,NNE,22,1.2,1.4,89,0.00,,---,0.23,VWS V14.01,2013-01-03 01:16:00,
2013-01-02 20:21:00,43.3,40.2,30.14,NNE,22,0.7,0.8,89,0.00,,---,0.23,VWS V14.01,2013-01-03 01:21:00,
2013-01-02 20:26:00,43.2,40.2,30.14,NNE,22,2.6,3.3,89,0.00,,---,0.23,VWS V14.01,2013-01-03 01:26:00,
2013-01-02 20:31:00,43.2,40.2,30.15,NNW,338,0.0,0.4,89,0.00,,---,0.23,VWS V14.01,2013-01-03 01:31:00,
2013-01-02 20:36:00,43.2,40.2,30.14,NNE,22,0.3,0.4,89,0.00,,---,0.23,VWS V14.01,2013-01-03 01:36:00,
2013-01-02 20:41:00,43.2,40.2,30.13,ENE,68,1.8,2.3,89,0.00,,---,0.23,VWS V14.01,2013-01-03 01:41:00,
2013-01-02 20:46:00,43.0,40.0,30.13,ENE,68,0.7,0.8,89,0.00,,---,0.23,VWS V14.01,2013-01-03 01:46:00,
2013-01-02 20:51:00,43.0,39.7,30.15,North,0,0.7,0.8,88,0.00,,---,0.23,VWS V14.01,2013-01-03 01:51:00,
2013-01-02 20:56:00,43.0,39.7,30.15,NE,45,1.5,2.7,88,0.00,,---,0.23,VWS V14.01,2013-01-03 01:56:00,
2013-01-02 21:01:00,43.0,39.7,30.15,ESE,112,0.7,0.8,88,0.00,,---,0.23,VWS V14.01,2013-01-03 02:01:00,
2013-01-02 21:06:00,42.8,39.5,30.15,East,90,1.8,2.3,88,0.00,,---,0.23,VWS V14.01,2013-01-03 02:06:00,
2013-01-02 21:11:00,42.8,39.5,30.14,East,90,1.2,1.4,88,0.00,,---,0.23,VWS V14.01,2013-01-03 02:11:00,
2013-01-02 21:16:00,42.8,39.5,30.14,NNE,22,0.3,0.4,88,0.00,,---,0.23,VWS V14.01,2013-01-03 02:16:00,
2013-01-02 21:21:00,42.8,39.5,30.14,NE,45,0.7,0.8,88,0.00,,---,0.23,VWS V14.01,2013-01-03 02:21:00,
2013-01-02 21:26:00,42.8,39.5,30.14,NE,45,0.7,0.8,88,0.00,,---,0.23,VWS V14.01,2013-01-03 02:26:00,
2013-01-02 21:31:00,42.6,39.3,30.14,NE,45,0.0,0.4,88,0.00,,---,0.23,VWS V14.01,2013-01-03 02:31:00,
2013-01-02 21:36:00,42.6,39.3,30.14,NNE,22,0.0,0.0,88,0.00,,---,0.23,VWS V14.01,2013-01-03 02:36:00,
2013-01-02 21:41:00,42.6,39.3,30.14,NE,45,1.8,2.3,88,0.00,,---,0.23,VWS V14.01,2013-01-03 02:41:00,
2013-01-02 21:46:00,42.6,39.3,30.14,ENE,68,0.0,0.0,88,0.00,,---,0.23,VWS V14.01,2013-01-03 02:46:00,
2013-01-02 21:51:00,42.6,39.3,30.14,North,0,1.8,2.7,88,0.00,,---,0.23,VWS V14.01,2013-01-03 02:51:00,
2013-01-02 21:56:00,42.6,39.6,30.15,ENE,68,0.7,0.8,89,0.00,,---,0.23,VWS V14.01,2013-01-03 02:56:00,
2013-01-02 22:01:00,42.6,39.6,30.15,ENE,68,0.7,0.8,89,0.00,,---,0.23,VWS V14.01,2013-01-03 03:01:00,
2013-01-02 22:06:00,42.4,39.4,30.16,NNE,22,0.0,0.0,89,0.00,,---,0.23,VWS V14.01,2013-01-03 03:06:00,
2013-01-02 22:11:00,42.4,39.4,30.15,ENE,68,0.3,0.8,89,0.00,,---,0.23,VWS V14.01,2013-01-03 03:11:00,
2013-01-02 22:16:00,42.4,39.4,30.15,West,270,1.2,1.4,89,0.00,,---,0.23,VWS V14.01,2013-01-03 03:16:00,
2013-01-02 22:22:00,42.4,39.4,30.16,ESE,112,0.0,0.0,89,0.00,,---,0.23,VWS V14.01,2013-01-03 03:22:00,
2013-01-02 22:26:00,42.4,39.4,30.16,North,0,0.0,0.4,89,0.00,,---,0.23,VWS V14.01,2013-01-03 03:26:00,
2013-01-02 22:32:00,42.4,39.4,30.16,NNE,22,0.7,1.8,89,0.00,,---,0.23,VWS V14.01,2013-01-03 03:32:00,
2013-01-02 22:38:00,42.4,39.4,30.16,North,0,0.7,0.8,89,0.00,,---,0.23,VWS V14.01,2013-01-03 03:38:00,
2013-01-02 22:43:00,42.4,39.4,30.16,NE,45,0.3,0.4,89,0.00,,---,0.23,VWS V14.01,2013-01-03 03:43:00,
2013-01-02 22:48:00,42.4,39.4,30.16,NE,45,0.0,0.0,89,0.00,,---,0.23,VWS V14.01,2013-01-03 03:48:00,
2013-01-02 22:53:00,42.4,39.4,30.14,ESE,112,1.8,2.3,89,0.00,,---,0.23,VWS V14.01,2013-01-03 03:53:00,
2013-01-02 22:58:00,42.4,39.4,30.16,East,90,0.3,0.4,89,0.00,,---,0.23,VWS V14.01,2013-01-03 03:58:00,
2013-01-02 23:03:00,42.4,39.4,30.15,East,90,0.7,0.8,89,0.00,,---,0.23,VWS V14.01,2013-01-03 04:03:00,
2013-01-02 23:08:00,42.4,39.7,30.15,NE,45,0.0,0.0,90,0.00,,---,0.23,VWS V14.01,2013-01-03 04:08:00,
2013-01-02 23:13:00,42.3,39.6,30.16,ENE,68,0.0,0.0,90,0.00,,---,0.23,VWS V14.01,2013-01-03 04:13:00,
2013-01-02 23:18:00,42.3,39.6,30.16,East,90,0.0,0.0,90,0.00,,---,0.23,VWS V14.01,2013-01-03 04:18:00,
2013-01-02 23:23:00,42.3,39.6,30.17,NNE,22,0.3,0.8,90,0.00,,---,0.23,VWS V14.01,2013-01-03 04:23:00,
2013-01-02 23:28:00,42.3,39.6,30.18,North,0,0.3,0.4,90,0.00,,---,0.23,VWS V14.01,2013-01-03 04:28:00,
2013-01-02 23:33:00,42.3,39.6,30.19,North,0,0.7,0.8,90,0.00,,---,0.23,VWS V14.01,2013-01-03 04:33:00,
2013-01-02 23:38:00,42.3,39.6,30.17,East,90,3.0,3.7,90,0.00,,---,0.23,VWS V14.01,2013-01-03 04:38:00,
2013-01-02 23:43:00,42.3,39.6,30.16,SE,135,1.2,1.4,90,0.00,,---,0.23,VWS V14.01,2013-01-03 04:43:00,
2013-01-02 23:48:00,42.3,39.6,30.16,NE,45,0.7,1.8,90,0.00,,---,0.23,VWS V14.01,2013-01-03 04:48:00,
2013-01-02 23:53:00,42.1,39.4,30.15,East,90,0.3,0.4,90,0.00,,---,0.23,VWS V14.01,2013-01-03 04:53:00,
2013-01-02 23:58:00,42.1,39.4,30.15,ENE,68,0.0,0.4,90,0.00,,---,0.23,VWS V14.01,2013-01-03 04:58:00,